SCP
0 0 0 0 0 0 0 0 0 0 0 0 0 0 0 0 0 0 0 0 0 0 0 0 0 0 0 0 0 0 0 0 0 0 0 0 0 0 0 0 0 0 0
0 0 0 0 0 0 0 0 0 0 0 0 0 0 0 0 0 0 0 0 0 0 0 0 0 0 0 0 0 0 0 0 0 0 0 0 0 0 0 0 0 0 0
0 0 0 0 0 0 0 0 0 0 0 0 0 0 0 0 0 0 0 0 0 0 0 0 0 0 0 0 0 0 0 0 0 0 0 0 0 0 0 0 0 0 0
0 0 0 0 0 0 0 0 0 0 0 0 0 0 0 0 0 0 0 0 0 0 0 0 0 0 0 0 0 0 0 0 0 0 0 0 0 0 0 0 0 0 0
0 0 0 0 0 0 0 0 0 0 0 0 0 0 0 0 0 0 0 0 0 0 0 0 0 0 0 0 0 0 0 0 0 0 0 0 0 0 0 0 0 0 0
0 0 0 0 0 0 0 0 0 0 0 0 0 0 0 0 0 0 0 0 0 0 0 0 0 0 0 0 0 0 0 0 0 0 0 0 0 0 0 0 0 0 0
0 0 0 0 0 0 0 0 0 0 0 0 0 0 0 0 0 0 0 0 0 0 0 0 0 0 0 0 0 0 0 0 0 0 0 0 0 0 0 0 0 0 0
0 0 0 0 0 0 0 0 0 0 0 0 0 0 0 0 0 0 0 0 0 0 0 0 0 0 0 0 0 0 0 0 0 0 0 0 0 0 0 0 0 0 0
0 0 0 0 -0 -0 -0 0 0 0 0 0 0 0 0 0 0 0 0 0 0 0 0 0 0 0 0 0 0 0 0 0 0 0 0 0 0 0 0 0 0 0 0
-0 -0 0 0 -0 -0 0 0 0 0 0 0 0 0 0 0 0 0 0 0 0 0 0 0 0 0 0 0 0 0 0 0 0 0 0 0 0 0 0 0 0 0 0
0 -0 -0 -0 -0 0 0 0 0 0 0 0 0 0 0 0 0 0 0 0 0 0 0 0 0 0 0 0 0 0 0 0 0 0 0 0 0 0 0 0 0 0 0
-0 0 -0 0 0 0 0 0 0 0 0 0 0 0 0 0 0 0 0 0 0 0 0 0 0 0 0 0 0 0 0 0 0 0 0 0 0 0 0 0 0 0 0
-0 -0 0 0 0 0 0 0 0 0 0 0 0 0 0 0 0 0 0 0 0 0 0 0 0 0 0 0 0 0 0 0 0 0 0 0 0 0 0 0 0 0 0
0 -0 0 0 0 0 0 0 0 0 0 0 0 0 0 0 0 0 0 0 0 0 0 0 0 0 0 0 0 0 0 0 0 0 0 0 0 0 0 0 0 0 0
-0 0 0 0 0 0 0 0 0 0 0 0 0 0 0 0 0 0 0 0 0 0 0 0 0 0 0 0 0 0 0 0 0 0 0 0 0 0 0 0 0 0 0
-0 0 0 0 0 0 0 0 0 0 0 0 0 0 0 0 0 0 0 0 0 0 0 0 0 0 0 0 0 0 0 0 0 0 0 0 0 0 0 0 0 0 0
-0 -0 0 0 0 0 0 0 0 0 0 0 0 0 0 0 0 0 0 0 0 0 0 0 0 0 0 0 0 0 0 0 0 0 0 0 0 0 0 0 0 0 0
-0 0 0 0 0 0 0 0 0 0 0 0 0 0 0 0 0 0 0 0 0 0 0 0 0 0 0 0 0 0 0 0 0 0 0 0 0 0 0 0 0 0 0
0 0 0 0 0 0 0 0 0 0 0 0 0 0 0 0 0 0 0 0 0 0 0 0 0 0 0 0 0 0 0 0 0 0 0 0 0 0 0 0 0 0 0
0 0 0 0 0 0 0 0 0 0 0 0 0 0 0 0 0 0 0 0 0 0 0 0 0 0 0 0 0 0 0 0 0 0 0 0 0 0 0 0 0 0 0
0 0 0 0 0 0 0 0 0 0 0 0 0 0 0 0 0 0 0 0 0 0 0 0 0 0 0 0 0 0 0 0 0 0 0 0 0 0 0 0 0 0 0
0 0 0 0 0 0 0 0 0 0 0 0 0 0 0 0 0 0 0 0 0 0 0 0 0 0 0 0 0 0 0 0 0 0 0 0 0 0 0 0 0 0 0
0 0 0 0 0 0 0 0 0 0 0 0 0 0 0 0 0 0 0 0 0 0 0 0 0 0 0 0 0 0 0 0 0 0 0 0 0 0 0 0 0 0 0
0 0 0 0 0 0 0 0 0 0 0 0 0 0 0 0 0 0 0 0 0 0 0 0 0 0 0 0 0 0 0 0 0 0 0 0 0 0 0 0 0 0 0
0 0 0 0 0 0 0 0 0 0 0 0 0 0 0 0 0 0 0 0 0 0 0 0 0 0 0 0 0 0 0 0 0 0 0 0 0 0 0 0 0 0 0
0 0 0 0 0 0 0 0 0 0 0 0 0 0 0 0 0 0 0 0 0 0 0 0 0 0 0 0 0 0 0 0 0 0 0 0 0 0 0 0 0 0 0
Wind_Speed_500mb
125 114 113 105 91 85 81 77 78 76 69 59 51 35 31 25 22 17 24 22 18 10 8 8 12 16 19 22 25 29 32 36 42 48 49 50 52 52 53 52 53 50 52
119 112 110 100 87 80 76 83 82 77 64 51 49 45 31 28 30 25 22 20 13 11 11 12 16 19 21 24 28 32 35 40 44 49 54 56 57 56 57 55 54 56 62
107 104 94 83 83 81 85 82 77 72 65 59 52 41 37 32 27 27 21 16 16 16 16 18 21 22 24 28 31 35 37 41 46 52 57 58 59 60 60 60 60 65 67
89 93 84 76 83 82 83 80 75 65 58 52 44 41 34 31 29 22 20 21 20 21 23 23 25 26 28 30 33 38 41 46 48 53 56 58 59 57 62 58 66 71 76
76 82 84 87 82 83 83 76 67 62 57 50 41 36 36 31 24 22 23 23 25 27 25 26 30 32 32 34 36 39 45 49 53 53 54 55 57 56 60 66 73 79 79
84 87 91 90 87 85 76 71 68 62 51 48 43 37 32 27 25 25 25 28 29 28 28 31 34 35 36 38 41 43 48 51 50 53 53 50 55 57 60 65 73 78 71
89 95 93 90 88 81 76 72 61 58 53 44 39 33 28 26 26 27 30 29 30 29 32 35 37 39 40 40 42 47 48 48 47 43 47 50 50 52 59 67 69 71 78
100 94 89 77 75 74 69 65 57 49 42 36 31 28 26 25 26 27 29 31 31 32 36 38 41 41 43 47 48 49 47 45 43 42 45 43 45 53 61 65 69 75 77
85 81 80 82 79 75 63 55 47 42 36 31 27 26 23 22 23 26 30 32 35 36 39 41 45 45 47 52 52 48 46 41 40 41 38 38 47 55 57 62 65 70 78
77 80 74 73 64 57 52 48 43 35 29 28 24 19 18 20 21 23 28 34 39 39 42 46 50 51 52 54 50 47 47 40 39 35 36 44 51 53 54 58 59 62 64
74 73 62 53 51 47 42 38 35 34 30 22 20 20 15 17 19 22 26 35 40 45 48 50 51 52 54 51 50 49 44 40 34 35 42 46 49 51 52 54 53 54 56
59 52 51 51 46 42 38 38 39 32 25 21 19 16 15 17 16 21 26 33 42 50 50 49 49 53 53 51 49 41 40 34 37 40 43 45 46 48 48 51 51 50 47
51 51 49 44 43 42 42 41 35 31 23 15 15 18 16 16 15 18 24 33 42 51 51 51 51 52 50 45 38 36 36 37 39 42 43 43 44 49 49 52 50 49 44
48 48 48 47 45 43 43 39 30 23 20 19 21 20 17 16 14 17 24 36 43 45 48 50 50 49 43 40 38 39 38 37 41 41 42 42 45 47 48 51 51 50 49
45 46 47 43 42 39 31 27 24 21 28 25 20 22 20 20 19 20 26 35 42 45 47 45 45 45 45 43 43 38 37 39 42 42 41 43 46 46 46 47 48 46 42
45 46 46 42 34 33 34 32 34 29 27 25 28 28 29 28 24 29 33 39 45 46 43 39 36 38 41 38 37 39 40 42 43 43 42 43 44 46 46 43 43 39 43
42 38 39 38 36 39 40 37 26 26 30 34 34 34 34 30 31 32 35 39 45 48 44 37 33 32 33 36 40 43 44 44 43 41 40 43 44 44 45 42 37 34 41
41 40 40 39 36 34 32 31 33 36 34 36 38 39 39 36 37 38 39 43 45 44 48 47 46 42 42 43 44 44 44 44 41 40 41 43 43 43 40 37 30 36 48
40 36 38 38 36 38 39 39 37 36 37 39 39 43 42 42 42 43 43 44 44 45 49 51 50 51 50 48 47 44 43 40 39 40 42 41 41 41 37 30 26 34 51
32 38 38 41 40 40 40 40 39 38 40 40 42 43 44 48 49 46 45 43 44 47 55 55 52 53 54 51 48 45 42 39 40 40 40 38 39 37 32 25 27 39 50
24 27 31 34 36 38 40 43 42 44 44 44 47 45 48 51 51 51 47 45 45 52 57 55 54 55 54 52 49 45 41 40 39 39 37 36 36 34 29 25 28 38 52
19 23 26 29 32 37 41 44 49 51 50 50 49 48 51 55 54 52 50 50 49 57 59 60 56 54 51 50 47 44 40 38 38 38 35 34 34 32 27 24 28 38 50
23 26 28 30 34 38 43 47 51 54 56 55 52 52 52 52 52 53 53 52 55 62 66 61 56 51 48 47 45 43 38 36 38 36 34 34 33 31 28 25 28 37 46
18 21 24 28 33 38 43 46 50 53 54 54 53 50 48 49 50 52 52 52 62 69 64 58 53 49 48 47 46 41 37 39 38 35 34 34 32 31 29 26 27 36 43
16 19 22 25 28 31 35 37 40 43 46 47 46 44 44 48 51 51 51 60 63 61 57 53 50 49 48 47 45 41 40 40 38 34 33 34 32 29 28 26 25 34 39
18 20 22 23 25 27 30 33 36 38 39 41 43 45 47 50 53 54 62 64 59 55 49 46 46 47 47 45 44 44 40 40 39 34 32 34 31 28 27 25 25 33 39
Wind_Direction_500mb
201 195 199 199 205 198 201 188 177 165 162 167 160 164 175 173 194 216 216 209 213 213 243 283 300 309 311 311 314 318 317 313 307 311 314 316 317 321 321 322 322 323 327
190 194 191 191 203 192 188 177 170 159 161 158 167 178 165 188 209 201 207 214 219 236 256 277 290 293 300 307 313 311 311 309 306 310 314 317 318 322 322 322 325 331 332
188 185 185 186 190 182 177 173 165 166 167 164 163 162 188 197 201 207 208 219 234 250 262 273 280 287 297 303 305 307 309 308 309 307 311 313 316 321 321 326 329 332 332
182 181 181 176 173 171 169 165 160 165 166 155 160 185 189 200 209 212 218 230 241 252 261 269 280 288 290 296 303 308 309 309 307 305 305 310 315 321 323 325 327 330 329
172 168 170 169 166 161 159 162 166 160 152 169 173 181 196 206 211 222 231 240 248 252 264 277 277 280 288 299 305 307 307 307 304 303 304 309 314 320 320 324 324 326 327
166 162 159 156 158 160 163 160 158 165 166 174 184 192 200 206 215 228 239 246 253 262 272 275 280 286 294 301 304 305 306 303 300 299 304 305 311 312 317 322 323 325 326
154 152 151 153 158 162 163 162 167 171 180 182 189 196 204 212 223 232 242 254 262 269 275 278 284 290 294 294 297 300 302 296 292 295 291 298 306 311 316 321 322 321 320
150 150 152 156 157 154 164 170 174 177 182 186 193 201 211 220 231 240 250 259 268 274 279 283 288 291 292 295 297 298 296 293 291 291 293 303 308 312 317 319 320 318 319
150 154 153 153 158 168 171 172 174 178 184 190 199 208 213 229 243 249 255 267 274 278 283 288 289 292 296 294 294 294 294 293 291 293 298 302 307 310 313 316 317 319 324
153 149 151 162 168 171 169 171 175 176 186 196 205 216 223 233 250 259 265 272 279 287 287 293 296 295 289 289 291 291 290 288 288 293 298 304 307 310 315 316 317 321 324
153 158 165 166 169 170 169 173 178 183 189 196 211 221 229 241 248 261 276 287 297 297 299 297 293 288 287 289 293 288 288 290 289 295 305 307 309 312 313 312 316 322 325
160 166 169 170 169 170 174 182 186 187 190 202 219 230 236 250 266 281 296 308 302 301 306 301 292 286 288 288 286 282 286 288 297 302 304 305 306 308 311 315 320 323 327
169 173 172 170 174 182 189 194 190 194 197 221 243 238 235 254 272 298 308 313 314 309 302 295 290 287 286 285 287 281 289 293 296 298 300 303 309 313 317 320 321 322 329
176 175 175 180 185 192 196 199 200 207 218 233 245 251 243 252 272 296 323 320 312 308 301 294 290 288 282 278 278 284 285 290 293 297 302 308 313 314 319 319 321 326 328
181 181 184 188 196 203 202 211 215 220 233 244 256 254 248 252 270 297 311 320 319 313 303 293 285 282 278 277 277 279 284 293 296 299 305 309 310 314 318 319 323 327 328
186 189 192 196 203 209 212 217 223 230 247 267 266 255 248 261 280 291 299 314 321 317 309 298 285 277 275 276 273 275 284 294 296 297 301 305 308 312 319 323 324 326 328
196 194 199 202 214 216 219 224 237 249 258 266 265 258 254 261 272 284 294 304 311 310 314 306 288 281 279 275 277 278 282 289 288 292 298 302 307 313 320 323 323 324 330
202 201 206 213 221 222 230 237 246 253 269 276 266 257 253 259 273 286 293 292 297 298 298 300 293 286 279 276 276 277 278 284 286 291 297 300 305 312 318 320 320 325 332
208 212 218 219 224 228 234 243 252 261 276 278 268 258 255 261 273 280 284 286 295 297 303 294 289 286 282 277 276 277 279 280 285 289 293 296 302 310 316 313 315 325 330
221 224 228 231 237 241 245 251 254 266 279 283 276 268 260 263 271 279 283 288 294 303 305 295 288 280 277 275 274 275 276 278 280 284 287 291 297 305 308 305 313 324 331
228 234 239 243 248 252 254 256 256 266 278 287 287 278 269 269 275 279 284 288 290 304 302 294 285 281 277 273 271 271 270 272 275 280 283 286 295 301 298 299 312 324 330
243 246 250 254 256 259 261 259 262 270 280 287 290 283 274 272 275 280 285 290 289 296 299 293 283 277 272 269 267 265 267 268 271 276 278 284 291 293 286 290 306 322 329
265 267 270 273 275 274 272 272 273 277 281 285 287 285 280 278 280 283 288 292 290 298 300 293 285 277 271 266 262 261 262 265 269 273 277 282 286 285 275 280 300 321 331
273 276 277 277 277 278 280 281 281 282 285 288 289 288 284 282 286 290 291 290 296 301 297 291 283 275 270 265 261 261 257 259 264 266 271 279 280 276 266 273 299 321 332
282 289 294 296 296 293 292 293 294 294 293 292 292 288 286 285 287 287 286 296 300 300 297 289 280 274 270 265 263 260 255 260 263 261 268 276 275 267 257 268 298 319 331
313 310 307 306 305 307 308 307 305 303 300 295 293 291 289 288 287 285 291 297 298 296 292 285 279 274 270 265 264 262 260 262 261 256 266 273 273 260 253 267 296 316 330
Wind_Speed_850mb
125 114 113 105 91 85 81 77 78 76 69 59 51 35 31 25 22 17 24 22 18 10 8 8 12 16 19 22 25 29 32 36 42 48 49 50 52 52 53 52 53 50 52
119 112 110 100 87 80 76 83 82 77 64 51 49 45 31 28 30 25 22 20 13 11 11 12 16 19 21 24 28 32 35 40 44 49 54 56 57 56 57 55 54 56 62
107 104 94 83 83 81 85 82 77 72 65 59 52 41 37 32 27 27 21 16 16 16 16 18 21 22 24 28 31 35 37 41 46 52 57 58 59 60 60 60 60 65 67
89 93 84 76 83 82 83 80 75 65 58 52 44 41 34 31 29 22 20 21 20 21 23 23 25 26 28 30 33 38 41 46 48 53 56 58 59 57 62 58 66 71 76
76 82 84 87 82 83 83 76 67 62 57 50 41 36 36 31 24 22 23 23 25 27 25 26 30 32 32 34 36 39 45 49 53 53 54 55 57 56 60 66 73 79 79
84 87 91 90 87 85 76 71 68 62 51 48 43 37 32 27 25 25 25 28 29 28 28 31 34 35 36 38 41 43 48 51 50 53 53 50 55 57 60 65 73 78 71
89 95 93 90 88 81 76 72 61 58 53 44 39 33 28 26 26 27 30 29 30 29 32 35 37 39 40 40 42 47 48 48 47 43 47 50 50 52 59 67 69 71 78
100 94 89 77 75 74 69 65 57 49 42 36 31 28 26 25 26 27 29 31 31 32 36 38 41 41 43 47 48 49 47 45 43 42 45 43 45 53 61 65 69 75 77
85 81 80 82 79 75 63 55 47 42 36 31 27 26 23 22 23 26 30 32 35 36 39 41 45 45 47 52 52 48 46 41 40 41 38 38 47 55 57 62 65 70 78
77 80 74 73 64 57 52 48 43 35 29 28 24 19 18 20 21 23 28 34 39 39 42 46 50 51 52 54 50 47 47 40 39 35 36 44 51 53 54 58 59 62 64
74 73 62 53 51 47 42 38 35 34 30 22 20 20 15 17 19 22 26 35 40 45 48 50 51 52 54 51 50 49 44 40 34 35 42 46 49 51 52 54 53 54 56
59 52 51 51 46 42 38 38 39 32 25 21 19 16 15 17 16 21 26 33 42 50 50 49 49 53 53 51 49 41 40 34 37 40 43 45 46 48 48 51 51 50 47
51 51 49 44 43 42 42 41 35 31 23 15 15 18 16 16 15 18 24 33 42 51 51 51 51 52 50 45 38 36 36 37 39 42 43 43 44 49 49 52 50 49 44
48 48 48 47 45 43 43 39 30 23 20 19 21 20 17 16 14 17 24 36 43 45 48 50 50 49 43 40 38 39 38 37 41 41 42 42 45 47 48 51 51 50 49
45 46 47 43 42 39 31 27 24 21 28 25 20 22 20 20 19 20 26 35 42 45 47 45 45 45 45 43 43 38 37 39 42 42 41 43 46 46 46 47 48 46 42
45 46 46 42 34 33 34 32 34 29 27 25 28 28 29 28 24 29 33 39 45 46 43 39 36 38 41 38 37 39 40 42 43 43 42 43 44 46 46 43 43 39 43
42 38 39 38 36 39 40 37 26 26 30 34 34 34 34 30 31 32 35 39 45 48 44 37 33 32 33 36 40 43 44 44 43 41 40 43 44 44 45 42 37 34 41
41 40 40 39 36 34 32 31 33 36 34 36 38 39 39 36 37 38 39 43 45 44 48 47 46 42 42 43 44 44 44 44 41 40 41 43 43 43 40 37 30 36 48
40 36 38 38 36 38 39 39 37 36 37 39 39 43 42 42 42 43 43 44 44 45 49 51 50 51 50 48 47 44 43 40 39 40 42 41 41 41 37 30 26 34 51
32 38 38 41 40 40 40 40 39 38 40 40 42 43 44 48 49 46 45 43 44 47 55 55 52 53 54 51 48 45 42 39 40 40 40 38 39 37 32 25 27 39 50
24 27 31 34 36 38 40 43 42 44 44 44 47 45 48 51 51 51 47 45 45 52 57 55 54 55 54 52 49 45 41 40 39 39 37 36 36 34 29 25 28 38 52
19 23 26 29 32 37 41 44 49 51 50 50 49 48 51 55 54 52 50 50 49 57 59 60 56 54 51 50 47 44 40 38 38 38 35 34 34 32 27 24 28 38 50
23 26 28 30 34 38 43 47 51 54 56 55 52 52 52 52 52 53 53 52 55 62 66 61 56 51 48 47 45 43 38 36 38 36 34 34 33 31 28 25 28 37 46
18 21 24 28 33 38 43 46 50 53 54 54 53 50 48 49 50 52 52 52 62 69 64 58 53 49 48 47 46 41 37 39 38 35 34 34 32 31 29 26 27 36 43
16 19 22 25 28 31 35 37 40 43 46 47 46 44 44 48 51 51 51 60 63 61 57 53 50 49 48 47 45 41 40 40 38 34 33 34 32 29 28 26 25 34 39
18 20 22 23 25 27 30 33 36 38 39 41 43 45 47 50 53 54 62 64 59 55 49 46 46 47 47 45 44 44 40 40 39 34 32 34 31 28 27 25 25 33 39
Wind_Direction_850mb
201 195 199 199 205 198 201 188 177 165 162 167 160 164 175 173 194 216 216 209 213 213 243 283 300 309 311 311 314 318 317 313 307 311 314 316 317 321 321 322 322 323 327
190 194 191 191 203 192 188 177 170 159 161 158 167 178 165 188 209 201 207 214 219 236 256 277 290 293 300 307 313 311 311 309 306 310 314 317 318 322 322 322 325 331 332
188 185 185 186 190 182 177 173 165 166 167 164 163 162 188 197 201 207 208 219 234 250 262 273 280 287 297 303 305 307 309 308 309 307 311 313 316 321 321 326 329 332 332
182 181 181 176 173 171 169 165 160 165 166 155 160 185 189 200 209 212 218 230 241 252 261 269 280 288 290 296 303 308 309 309 307 305 305 310 315 321 323 325 327 330 329
172 168 170 169 166 161 159 162 166 160 152 169 173 181 196 206 211 222 231 240 248 252 264 277 277 280 288 299 305 307 307 307 304 303 304 309 314 320 320 324 324 326 327
166 162 159 156 158 160 163 160 158 165 166 174 184 192 200 206 215 228 239 246 253 262 272 275 280 286 294 301 304 305 306 303 300 299 304 305 311 312 317 322 323 325 326
154 152 151 153 158 162 163 162 167 171 180 182 189 196 204 212 223 232 242 254 262 269 275 278 284 290 294 294 297 300 302 296 292 295 291 298 306 311 316 321 322 321 320
150 150 152 156 157 154 164 170 174 177 182 186 193 201 211 220 231 240 250 259 268 274 279 283 288 291 292 295 297 298 296 293 291 291 293 303 308 312 317 319 320 318 319
150 154 153 153 158 168 171 172 174 178 184 190 199 208 213 229 243 249 255 267 274 278 283 288 289 292 296 294 294 294 294 293 291 293 298 302 307 310 313 316 317 319 324
153 149 151 162 168 171 169 171 175 176 186 196 205 216 223 233 250 259 265 272 279 287 287 293 296 295 289 289 291 291 290 288 288 293 298 304 307 310 315 316 317 321 324
153 158 165 166 169 170 169 173 178 183 189 196 211 221 229 241 248 261 276 287 297 297 299 297 293 288 287 289 293 288 288 290 289 295 305 307 309 312 313 312 316 322 325
160 166 169 170 169 170 174 182 186 187 190 202 219 230 236 250 266 281 296 308 302 301 306 301 292 286 288 288 286 282 286 288 297 302 304 305 306 308 311 315 320 323 327
169 173 172 170 174 182 189 194 190 194 197 221 243 238 235 254 272 298 308 313 314 309 302 295 290 287 286 285 287 281 289 293 296 298 300 303 309 313 317 320 321 322 329
176 175 175 180 185 192 196 199 200 207 218 233 245 251 243 252 272 296 323 320 312 308 301 294 290 288 282 278 278 284 285 290 293 297 302 308 313 314 319 319 321 326 328
181 181 184 188 196 203 202 211 215 220 233 244 256 254 248 252 270 297 311 320 319 313 303 293 285 282 278 277 277 279 284 293 296 299 305 309 310 314 318 319 323 327 328
186 189 192 196 203 209 212 217 223 230 247 267 266 255 248 261 280 291 299 314 321 317 309 298 285 277 275 276 273 275 284 294 296 297 301 305 308 312 319 323 324 326 328
196 194 199 202 214 216 219 224 237 249 258 266 265 258 254 261 272 284 294 304 311 310 314 306 288 281 279 275 277 278 282 289 288 292 298 302 307 313 320 323 323 324 330
202 201 206 213 221 222 230 237 246 253 269 276 266 257 253 259 273 286 293 292 297 298 298 300 293 286 279 276 276 277 278 284 286 291 297 300 305 312 318 320 320 325 332
208 212 218 219 224 228 234 243 252 261 276 278 268 258 255 261 273 280 284 286 295 297 303 294 289 286 282 277 276 277 279 280 285 289 293 296 302 310 316 313 315 325 330
221 224 228 231 237 241 245 251 254 266 279 283 276 268 260 263 271 279 283 288 294 303 305 295 288 280 277 275 274 275 276 278 280 284 287 291 297 305 308 305 313 324 331
228 234 239 243 248 252 254 256 256 266 278 287 287 278 269 269 275 279 284 288 290 304 302 294 285 281 277 273 271 271 270 272 275 280 283 286 295 301 298 299 312 324 330
243 246 250 254 256 259 261 259 262 270 280 287 290 283 274 272 275 280 285 290 289 296 299 293 283 277 272 269 267 265 267 268 271 276 278 284 291 293 286 290 306 322 329
265 267 270 273 275 274 272 272 273 277 281 285 287 285 280 278 280 283 288 292 290 298 300 293 285 277 271 266 262 261 262 265 269 273 277 282 286 285 275 280 300 321 331
273 276 277 277 277 278 280 281 281 282 285 288 289 288 284 282 286 290 291 290 296 301 297 291 283 275 270 265 261 261 257 259 264 266 271 279 280 276 266 273 299 321 332
282 289 294 296 296 293 292 293 294 294 293 292 292 288 286 285 287 287 286 296 300 300 297 289 280 274 270 265 263 260 255 260 263 261 268 276 275 267 257 268 298 319 331
313 310 307 306 305 307 308 307 305 303 300 295 293 291 289 288 287 285 291 297 298 296 292 285 279 274 270 265 264 262 260 262 261 256 266 273 273 260 253 267 296 316 330